| time (UTC) | temp F | wind direction | speed knots | gust knots | rain 1hr in | rain 24hr in | rain mn in | humidity % | barometer mb |
| 20260507112503 | 58 | 342 | 0.0 | 0.0 | 0.00 | 0.00 | 0.00 | 83 | 1016.8 |
| 20260507112000 | 58 | 336 | 0.0 | 0.0 | 0.00 | 0.00 | 0.00 | 83 | 1016.7 |
| 20260507111459 | 58 | 336 | 0.0 | 0.0 | 0.00 | 0.00 | 0.00 | 83 | 1016.6 |
| 20260507110953 | 59 | 336 | 0.0 | 0.0 | 0.00 | 0.00 | 0.00 | 83 | 1016.7 |
| 20260507110450 | 58 | 335 | 0.0 | 0.0 | 0.00 | 0.00 | 0.00 | 83 | 1016.7 |
| 20260507105946 | 58 | 334 | 0.0 | 0.0 | 0.00 | 0.00 | 0.00 | 83 | 1016.7 |
| 20260507105443 | 58 | 334 | 0.0 | 0.0 | 0.00 | 0.00 | 0.00 | 83 | 1016.6 |
| 20260507104940 | 58 | 334 | 0.0 | 0.0 | 0.00 | 0.00 | 0.00 | 83 | 1016.9 |
| 20260507104437 | 58 | 333 | 0.0 | 0.0 | 0.00 | 0.00 | 0.00 | 83 | 1016.6 |
| 20260507103933 | 58 | 333 | 0.0 | 0.0 | 0.00 | 0.00 | 0.00 | 82 | 1016.6 |
| 20260507103430 | 58 | 20 | 0.0 | 0.0 | 0.00 | 0.00 | 0.00 | 82 | 1016.6 |
| 20260507102926 | 58 | 21 | 0.0 | 0.0 | 0.00 | 0.00 | 0.00 | 81 | 1016.7 |
| 20260507102423 | 58 | 21 | 0.0 | 0.0 | 0.00 | 0.00 | 0.00 | 81 | 1016.7 |
| 20260507101919 | 58 | 21 | 0.0 | 0.0 | 0.00 | 0.00 | 0.00 | 80 | 1016.7 |
| 20260507101414 | 58 | 21 | 0.0 | 0.0 | 0.00 | 0.00 | 0.00 | 79 | 1016.8 |
| 20260507100911 | 59 | 21 | 0.0 | 0.0 | 0.00 | 0.00 | 0.00 | 79 | 1016.8 |
| 20260507100409 | 59 | 21 | 0.0 | 0.0 | 0.00 | 0.00 | 0.00 | 79 | 1016.8 |
| 20260507095907 | 59 | 21 | 0.0 | 0.0 | 0.00 | 0.00 | 0.00 | 79 | 1016.7 |
| 20260507095403 | 59 | 21 | 0.0 | 0.0 | 0.00 | 0.00 | 0.00 | 79 | 1016.7 |
| 20260507094901 | 59 | 16 | 0.0 | 0.0 | 0.00 | 0.00 | 0.00 | 78 | 1016.6 |
| 20260507094357 | 59 | 16 | 0.0 | 0.0 | 0.00 | 0.00 | 0.00 | 78 | 1016.7 |
| 20260507093854 | 60 | 16 | 0.0 | 0.0 | 0.00 | 0.00 | 0.00 | 78 | 1016.6 |
| 20260507093352 | 60 | 18 | 0.0 | 0.0 | 0.00 | 0.00 | 0.00 | 77 | 1016.8 |
| 20260507092850 | 60 | 18 | 0.0 | 0.0 | 0.00 | 0.00 | 0.00 | 77 | 1016.9 |
| 20260507092346 | 60 | 18 | 0.0 | 0.0 | 0.00 | 0.00 | 0.00 | 78 | 1016.8 |
| 20260507091843 | 61 | 23 | 0.9 | 0.9 | 0.00 | 0.00 | 0.00 | 78 | 1016.8 |
| 20260507091339 | 62 | 26 | 0.0 | 0.0 | 0.00 | 0.00 | 0.00 | 77 | 1017.0 |
| 20260507090835 | 62 | 352 | 0.0 | 0.0 | 0.00 | 0.00 | 0.00 | 75 | 1016.7 |
| 20260507090331 | 62 | 273 | 0.0 | 0.0 | 0.00 | 0.00 | 0.00 | 75 | 1016.9 |
| 20260507085828 | 62 | 273 | 0.0 | 0.0 | 0.00 | 0.00 | 0.00 | 75 | 1016.8 |
| 20260507085325 | 63 | 273 | 0.0 | 0.9 | 0.00 | 0.00 | 0.00 | 76 | 1017.0 |
| 20260507084823 | 63 | 278 | 0.9 | 1.7 | 0.00 | 0.00 | 0.00 | 76 | 1016.8 |
| 20260507084319 | 62 | 275 | 0.0 | 0.0 | 0.00 | 0.00 | 0.00 | 75 | 1016.9 |
| 20260507083816 | 62 | 269 | 0.0 | 0.0 | 0.00 | 0.00 | 0.00 | 75 | 1017.0 |
| 20260507083313 | 62 | 268 | 0.0 | 0.9 | 0.00 | 0.00 | 0.00 | 75 | 1017.1 |
| 20260507082809 | 62 | 281 | 0.0 | 0.0 | 0.00 | 0.00 | 0.00 | 76 | 1016.9 |
| 20260507082306 | 62 | 284 | 0.0 | 0.0 | 0.00 | 0.00 | 0.00 | 76 | 1017.0 |
| 20260507081802 | 62 | 284 | 0.0 | 0.0 | 0.00 | 0.00 | 0.00 | 75 | 1017.1 |
| 20260507081258 | 62 | 283 | 0.0 | 0.0 | 0.00 | 0.00 | 0.00 | 75 | 1017.1 |
| 20260507080755 | 62 | 283 | 0.0 | 0.0 | 0.00 | 0.00 | 0.00 | 74 | 1016.8 |
| 20260507080251 | 62 | 283 | 0.0 | 0.0 | 0.00 | 0.00 | 0.00 | 74 | 1017.1 |
| 20260507075746 | 62 | 280 | 0.0 | 0.0 | 0.00 | 0.00 | 0.00 | 75 | 1016.9 |
| 20260507075242 | 62 | 280 | 0.0 | 0.0 | 0.00 | 0.00 | 0.00 | 74 | 1017.0 |
| 20260507074739 | 63 | 280 | 0.0 | 0.0 | 0.00 | 0.00 | 0.00 | 73 | 1016.9 |
| 20260507074237 | 63 | 279 | 0.0 | 0.9 | 0.00 | 0.00 | 0.00 | 73 | 1016.9 |
| 20260507073733 | 63 | 276 | 0.9 | 0.9 | 0.00 | 0.00 | 0.00 | 73 | 1017.0 |
| 20260507073230 | 62 | 291 | 0.0 | 0.0 | 0.00 | 0.00 | 0.00 | 74 | 1017.0 |
| 20260507072728 | 63 | 291 | 0.0 | 0.0 | 0.00 | 0.00 | 0.00 | 75 | 1017.0 |
| 20260507072225 | 63 | 305 | 0.0 | 0.0 | 0.00 | 0.00 | 0.00 | 75 | 1017.1 |
| 20260507071723 | 63 | 305 | 0.0 | 0.0 | 0.00 | 0.00 | 0.00 | 74 | 1017.1 |
| 20260507071219 | 63 | 305 | 0.0 | 0.0 | 0.00 | 0.00 | 0.00 | 73 | 1017.0 |
| 20260507070716 | 63 | 307 | 0.0 | 0.0 | 0.00 | 0.00 | 0.00 | 73 | 1017.1 |
| 20260507070213 | 62 | 324 | 0.0 | 0.0 | 0.00 | 0.00 | 0.00 | 75 | 1017.0 |
| 20260507065709 | 62 | 24 | 0.0 | 0.0 | 0.00 | 0.00 | 0.00 | 75 | 1017.2 |
| 20260507065206 | 62 | 24 | 0.0 | 0.0 | 0.00 | 0.00 | 0.00 | 75 | 1017.1 |
| 20260507064704 | 63 | 24 | 0.0 | 0.0 | 0.00 | 0.00 | 0.00 | 74 | 1017.2 |
| 20260507064202 | 63 | 24 | 0.0 | 0.0 | 0.00 | 0.00 | 0.00 | 74 | 1017.1 |
| 20260507063659 | 63 | 24 | 0.0 | 0.0 | 0.00 | 0.00 | 0.00 | 73 | 1017.1 |
| 20260507063156 | 63 | 24 | 0.0 | 0.0 | 0.00 | 0.00 | 0.00 | 72 | 1017.1 |
| 20260507062653 | 63 | 24 | 0.0 | 0.0 | 0.00 | 0.00 | 0.00 | 71 | 1017.0 |
| 20260507062150 | 64 | 24 | 0.0 | 0.0 | 0.00 | 0.00 | 0.00 | 70 | 1017.0 |
| 20260507061648 | 64 | 24 | 0.0 | 0.0 | 0.00 | 0.00 | 0.00 | 69 | 1017.1 |
| 20260507061146 | 64 | 24 | 0.0 | 0.0 | 0.00 | 0.00 | 0.00 | 68 | 1017.0 |
| 20260507060644 | 64 | 60 | 0.0 | 0.0 | 0.00 | 0.00 | 0.00 | 68 | 1017.0 |
| 20260507060140 | 64 | 54 | 0.0 | 0.0 | 0.00 | 0.00 | 0.00 | 68 | 1017.1 |
| 20260507055635 | 64 | 57 | 0.0 | 0.0 | 0.00 | 0.00 | 0.00 | 67 | 1017.1 |
| 20260507055132 | 65 | 57 | 0.0 | 0.0 | 0.00 | 0.00 | 0.00 | 67 | 1017.0 |
| 20260507054628 | 65 | 55 | 0.0 | 0.0 | 0.00 | 0.00 | 0.00 | 67 | 1017.1 |
| 20260507054125 | 64 | 60 | 0.0 | 0.9 | 0.00 | 0.00 | 0.00 | 68 | 1016.9 |
| 20260507053623 | 64 | 15 | 0.0 | 0.0 | 0.00 | 0.00 | 0.00 | 68 | 1016.8 |
| 20260507053121 | 65 | 15 | 0.0 | 0.0 | 0.00 | 0.00 | 0.00 | 67 | 1016.8 |
| 20260507052619 | 65 | 15 | 0.0 | 0.0 | 0.00 | 0.00 | 0.00 | 66 | 1016.8 |
| 20260507052115 | 66 | 15 | 0.0 | 0.0 | 0.00 | 0.00 | 0.00 | 66 | 1016.8 |
| 20260507051613 | 66 | 15 | 0.0 | 0.0 | 0.00 | 0.00 | 0.00 | 66 | 1017.0 |
| 20260507051109 | 66 | 260 | 0.0 | 0.0 | 0.00 | 0.00 | 0.00 | 67 | 1017.0 |
| 20260507050606 | 66 | 255 | 0.0 | 0.0 | 0.00 | 0.00 | 0.00 | 68 | 1017.0 |
| 20260507045559 | 66 | 251 | 0.0 | 0.0 | 0.00 | 0.00 | 0.00 | 68 | 1016.9 |
| 20260507045056 | 67 | 251 | 0.0 | 0.0 | 0.00 | 0.00 | 0.00 | 67 | 1016.8 |
| 20260507044553 | 67 | 251 | 0.0 | 0.0 | 0.00 | 0.00 | 0.00 | 66 | 1016.9 |
| 20260507044050 | 67 | 251 | 0.0 | 0.0 | 0.00 | 0.00 | 0.00 | 65 | 1016.8 |
| 20260507043545 | 67 | 251 | 0.0 | 0.0 | 0.00 | 0.00 | 0.00 | 65 | 1016.7 |
| 20260507043043 | 67 | 251 | 0.0 | 0.0 | 0.00 | 0.00 | 0.00 | 65 | 1016.8 |
| 20260507042539 | 67 | 251 | 0.0 | 0.0 | 0.00 | 0.00 | 0.00 | 65 | 1016.5 |
| 20260507042035 | 68 | 251 | 0.0 | 0.0 | 0.00 | 0.00 | 0.00 | 66 | 1016.6 |
| 20260507041532 | 68 | 251 | 0.0 | 0.0 | 0.00 | 0.00 | 0.00 | 65 | 1016.6 |
| 20260507041029 | 68 | 250 | 0.0 | 0.0 | 0.00 | 0.00 | 0.00 | 65 | 1016.4 |
| 20260507040525 | 68 | 250 | 0.0 | 0.0 | 0.00 | 0.00 | 0.00 | 65 | 1016.6 |
| 20260507040021 | 68 | 250 | 0.0 | 0.0 | 0.00 | 0.00 | 0.00 | 65 | 1016.5 |
| 20260507035518 | 69 | 250 | 0.0 | 0.0 | 0.00 | 0.00 | 0.00 | 64 | 1016.5 |
| 20260507035014 | 69 | 250 | 0.0 | 0.0 | 0.00 | 0.00 | 0.00 | 64 | 1016.3 |
| 20260507034511 | 69 | 250 | 0.0 | 0.0 | 0.00 | 0.00 | 0.00 | 63 | 1016.2 |
| 20260507034009 | 69 | 250 | 0.0 | 0.0 | 0.00 | 0.00 | 0.00 | 62 | 1016.3 |
| 20260507033507 | 69 | 250 | 0.0 | 0.0 | 0.00 | 0.00 | 0.00 | 61 | 1016.2 |
| 20260507033004 | 69 | 250 | 0.0 | 0.0 | 0.00 | 0.00 | 0.00 | 60 | 1016.1 |
| 20260507032501 | 70 | 250 | 0.0 | 0.0 | 0.00 | 0.00 | 0.00 | 60 | 1016.1 |
| 20260507031956 | 70 | 250 | 0.0 | 0.0 | 0.00 | 0.00 | 0.00 | 59 | 1016.1 |
| 20260507031453 | 70 | 250 | 0.0 | 0.0 | 0.00 | 0.00 | 0.00 | 58 | 1015.9 |
| 20260507030950 | 71 | 250 | 0.0 | 0.0 | 0.00 | 0.00 | 0.00 | 58 | 1015.9 |
| 20260507030447 | 71 | 250 | 0.0 | 0.0 | 0.00 | 0.00 | 0.00 | 57 | 1016.0 |
| 20260507025944 | 72 | 250 | 0.0 | 0.0 | 0.00 | 0.00 | 0.00 | 55 | 1015.6 |
| 20260507025441 | 72 | 250 | 0.0 | 0.0 | 0.00 | 0.00 | 0.00 | 54 | 1015.9 |
| 20260507024939 | 73 | 250 | 0.0 | 0.0 | 0.00 | 0.00 | 0.00 | 53 | 1015.8 |
| 20260507024436 | 73 | 250 | 0.0 | 0.0 | 0.00 | 0.00 | 0.00 | 52 | 1016.0 |
| 20260507023932 | 74 | 249 | 1.7 | 1.7 | 0.00 | 0.00 | 0.00 | 52 | 1016.0 |
| 20260507023429 | 74 | 292 | 0.9 | 0.9 | 0.00 | 0.00 | 0.00 | 50 | 1015.9 |
| 20260507022926 | 75 | 14 | 0.0 | 0.0 | 0.00 | 0.00 | 0.00 | 48 | 1015.5 |
| 20260507022423 | 75 | 14 | 0.0 | 0.0 | 0.00 | 0.00 | 0.00 | 46 | 1015.5 |
| 20260507021919 | 75 | 14 | 0.0 | 0.0 | 0.00 | 0.00 | 0.00 | 46 | 1015.6 |
| 20260507021414 | 76 | 14 | 0.9 | 0.9 | 0.00 | 0.00 | 0.00 | 45 | 1015.7 |
| 20260507020912 | 76 | 295 | 0.0 | 0.0 | 0.00 | 0.00 | 0.00 | 43 | 1015.5 |
| 20260507020409 | 76 | 273 | 0.9 | 0.9 | 0.00 | 0.00 | 0.00 | 43 | 1015.7 |
| 20260507015906 | 76 | 283 | 0.9 | 1.7 | 0.00 | 0.00 | 0.00 | 44 | 1015.6 |
| 20260507015404 | 76 | 258 | 2.6 | 3.5 | 0.00 | 0.00 | 0.00 | 44 | 1015.8 |
| 20260507014900 | 76 | 260 | 3.5 | 4.3 | 0.00 | 0.00 | 0.00 | 43 | 1015.7 |
| 20260507014356 | 76 | 260 | 3.5 | 3.5 | 0.00 | 0.00 | 0.00 | 42 | 1015.6 |
| 20260507013853 | 77 | 257 | 1.7 | 1.7 | 0.00 | 0.00 | 0.00 | 42 | 1015.8 |
| 20260507013350 | 78 | 265 | 0.9 | 0.9 | 0.00 | 0.00 | 0.00 | 42 | 1015.7 |
| 20260507012848 | 77 | 222 | 1.7 | 1.7 | 0.00 | 0.00 | 0.00 | 42 | 1015.8 |
| 20260507012343 | 77 | 257 | 2.6 | 4.3 | 0.00 | 0.00 | 0.00 | 43 | 1015.6 |
| 20260507011841 | 78 | 233 | 1.7 | 1.7 | 0.00 | 0.00 | 0.00 | 42 | 1015.8 |
| 20260507011337 | 78 | 267 | 0.0 | 0.0 | 0.00 | 0.00 | 0.00 | 42 | 1015.7 |
| 20260507010832 | 78 | 227 | 1.7 | 3.5 | 0.00 | 0.00 | 0.00 | 41 | 1015.8 |
| 20260507010328 | 77 | 247 | 2.6 | 3.5 | 0.00 | 0.00 | 0.00 | 42 | 1015.8 |
| 20260507005825 | 77 | 275 | 2.6 | 3.5 | 0.00 | 0.00 | 0.00 | 41 | 1015.7 |
| 20260507005322 | 78 | 248 | 1.7 | 1.7 | 0.00 | 0.00 | 0.00 | 41 | 1015.7 |
| 20260507004819 | 78 | 291 | 0.0 | 0.0 | 0.00 | 0.00 | 0.00 | 41 | 1015.7 |
| 20260507004316 | 78 | 46 | 0.9 | 1.7 | 0.00 | 0.00 | 0.00 | 41 | 1015.5 |
| 20260507003813 | 77 | 281 | 4.3 | 5.2 | 0.00 | 0.00 | 0.00 | 41 | 1015.7 |
| 20260507003308 | 78 | 245 | 2.6 | 3.5 | 0.00 | 0.00 | 0.00 | 40 | 1015.7 |
| 20260507002803 | 78 | 25 | 1.7 | 3.5 | 0.00 | 0.00 | 0.00 | 41 | 1015.8 |
| 20260507002300 | 78 | 238 | 1.7 | 1.7 | 0.00 | 0.00 | 0.00 | 41 | 1015.8 |
| 20260507001757 | 79 | 334 | 0.0 | 0.9 | 0.00 | 0.00 | 0.00 | 40 | 1015.8 |
| 20260507001254 | 78 | 320 | 0.0 | 0.9 | 0.00 | 0.00 | 0.00 | 39 | 1015.7 |
| 20260507000750 | 77 | 244 | 1.7 | 1.7 | 0.00 | 0.00 | 0.00 | 41 | 1015.8 |
| 20260507000246 | 77 | 266 | 1.7 | 1.7 | 0.00 | 0.00 | 0.00 | 42 | 1015.8 |
| 20260506235743 | 78 | 254 | 4.3 | 6.1 | 0.00 | 0.00 | 0.00 | 41 | 1015.5 |
| 20260506235238 | 77 | 249 | 3.5 | 4.3 | 0.00 | 0.00 | 0.00 | 40 | 1015.8 |
| 20260506234736 | 77 | 273 | 1.7 | 1.7 | 0.00 | 0.00 | 0.00 | 41 | 1015.8 |
| 20260506234233 | 78 | 262 | 2.6 | 3.5 | 0.00 | 0.00 | 0.00 | 40 | 1015.8 |
| 20260506233730 | 78 | 346 | 0.9 | 0.9 | 0.00 | 0.00 | 0.00 | 40 | 1015.7 |
| 20260506233227 | 77 | 272 | 0.9 | 0.9 | 0.00 | 0.00 | 0.00 | 40 | 1015.8 |
| 20260506232724 | 78 | 286 | 5.2 | 6.1 | 0.00 | 0.00 | 0.00 | 39 | 1015.9 |
| 20260506232218 | 77 | 274 | 0.9 | 0.9 | 0.00 | 0.00 | 0.00 | 40 | 1015.9 |
| 20260506231716 | 78 | 357 | 1.7 | 1.7 | 0.00 | 0.00 | 0.00 | 39 | 1015.9 |
| 20260506231214 | 78 | 10 | 0.9 | 1.7 | 0.00 | 0.00 | 0.00 | 40 | 1016.0 |
| 20260506230710 | 78 | 57 | 1.7 | 1.7 | 0.00 | 0.00 | 0.00 | 39 | 1016.1 |
| 20260506230208 | 78 | 69 | 2.6 | 4.3 | 0.00 | 0.00 | 0.00 | 40 | 1015.9 |
| 20260506225704 | 78 | 23 | 1.7 | 1.7 | 0.00 | 0.00 | 0.00 | 41 | 1016.1 |
| 20260506225201 | 78 | 246 | 0.9 | 1.7 | 0.00 | 0.00 | 0.00 | 41 | 1016.4 |
| 20260506224657 | 78 | 263 | 1.7 | 1.7 | 0.00 | 0.00 | 0.00 | 40 | 1016.3 |
| 20260506224154 | 78 | 210 | 1.7 | 1.7 | 0.00 | 0.00 | 0.00 | 40 | 1016.4 |
| 20260506223650 | 77 | 16 | 0.9 | 0.9 | 0.00 | 0.00 | 0.00 | 41 | 1016.4 |
| 20260506223146 | 77 | 241 | 1.7 | 3.5 | 0.00 | 0.00 | 0.00 | 41 | 1016.6 |
| 20260506222643 | 77 | 251 | 0.9 | 0.9 | 0.00 | 0.00 | 0.00 | 43 | 1016.6 |
| 20260506222139 | 76 | 249 | 0.9 | 1.7 | 0.00 | 0.00 | 0.00 | 41 | 1016.7 |
| 20260506221637 | 76 | 264 | 3.5 | 4.3 | 0.00 | 0.00 | 0.00 | 41 | 1016.6 |
| 20260506221135 | 75 | 55 | 0.9 | 1.7 | 0.00 | 0.00 | 0.00 | 42 | 1016.8 |
| 20260506220632 | 75 | 280 | 0.0 | 0.9 | 0.00 | 0.00 | 0.00 | 42 | 1016.7 |
| 20260506220127 | 75 | 41 | 2.6 | 4.3 | 0.00 | 0.00 | 0.00 | 41 | 1016.9 |
| 20260506215624 | 74 | 220 | 1.7 | 1.7 | 0.00 | 0.00 | 0.00 | 42 | 1017.0 |
| 20260506215119 | 75 | 246 | 1.7 | 3.5 | 0.00 | 0.00 | 0.00 | 41 | 1017.1 |
| 20260506214616 | 76 | 278 | 0.9 | 0.9 | 0.00 | 0.00 | 0.00 | 42 | 1017.1 |
| 20260506214114 | 77 | 275 | 1.7 | 1.7 | 0.00 | 0.00 | 0.00 | 40 | 1017.1 |
| 20260506213612 | 77 | 269 | 0.9 | 0.9 | 0.00 | 0.00 | 0.00 | 42 | 1017.5 |
| 20260506213109 | 75 | 0 | 0.9 | 0.9 | 0.00 | 0.00 | 0.00 | 40 | 1017.2 |
| 20260506212606 | 75 | 254 | 3.5 | 5.2 | 0.00 | 0.00 | 0.00 | 41 | 1017.3 |
| 20260506212101 | 76 | 278 | 0.9 | 0.9 | 0.00 | 0.00 | 0.00 | 41 | 1017.4 |
| 20260506211557 | 76 | 318 | 0.0 | 0.9 | 0.00 | 0.00 | 0.00 | 40 | 1017.5 |
| 20260506211054 | 74 | 56 | 2.6 | 3.5 | 0.00 | 0.00 | 0.00 | 40 | 1017.4 |
| 20260506210550 | 75 | 302 | 1.7 | 1.7 | 0.00 | 0.00 | 0.00 | 41 | 1017.5 |
| 20260506210047 | 74 | 308 | 0.0 | 0.9 | 0.00 | 0.00 | 0.00 | 41 | 1017.6 |
| 20260506205544 | 76 | 135 | 0.0 | 0.9 | 0.00 | 0.00 | 0.00 | 40 | 1017.6 |
| 20260506205039 | 75 | 268 | 0.9 | 0.9 | 0.00 | 0.00 | 0.00 | 41 | 1017.7 |
| 20260506204537 | 75 | 23 | 1.7 | 1.7 | 0.00 | 0.00 | 0.00 | 40 | 1017.6 |
| 20260506204034 | 75 | 46 | 0.9 | 1.7 | 0.00 | 0.00 | 0.00 | 40 | 1017.6 |
| 20260506203532 | 74 | 42 | 0.9 | 0.9 | 0.00 | 0.00 | 0.00 | 40 | 1017.6 |
| 20260506203028 | 74 | 334 | 1.7 | 1.7 | 0.00 | 0.00 | 0.00 | 43 | 1018.0 |
| 20260506202526 | 73 | 316 | 0.9 | 0.9 | 0.00 | 0.00 | 0.00 | 43 | 1017.9 |
| 20260506202022 | 72 | 246 | 0.9 | 1.7 | 0.00 | 0.00 | 0.00 | 44 | 1017.9 |
| 20260506201520 | 74 | 269 | 3.5 | 4.3 | 0.00 | 0.00 | 0.00 | 41 | 1018.0 |
| 20260506201016 | 73 | 251 | 2.6 | 3.5 | 0.00 | 0.00 | 0.00 | 44 | 1018.2 |
| 20260506200512 | 72 | 246 | 1.7 | 1.7 | 0.00 | 0.00 | 0.00 | 47 | 1018.0 |
| 20260506200009 | 71 | 224 | 0.0 | 0.0 | 0.00 | 0.00 | 0.00 | 48 | 1018.1 |
| 20260506195507 | 72 | 261 | 2.6 | 3.5 | 0.00 | 0.00 | 0.00 | 47 | 1018.4 |
| 20260506195002 | 72 | 49 | 2.6 | 3.5 | 0.00 | 0.00 | 0.00 | 46 | 1018.3 |
| 20260506194500 | 73 | 21 | 1.7 | 1.7 | 0.00 | 0.00 | 0.00 | 46 | 1018.2 |
| 20260506193956 | 72 | 5 | 1.7 | 1.7 | 0.00 | 0.00 | 0.00 | 46 | 1018.6 |
| 20260506193454 | 72 | 290 | 0.9 | 0.9 | 0.00 | 0.00 | 0.00 | 47 | 1018.5 |
| 20260506192950 | 72 | 264 | 0.9 | 1.7 | 0.00 | 0.00 | 0.00 | 48 | 1018.7 |
| 20260506192448 | 72 | 281 | 1.7 | 3.5 | 0.00 | 0.00 | 0.00 | 45 | 1018.3 |
| 20260506191944 | 70 | 128 | 0.0 | 0.9 | 0.00 | 0.00 | 0.00 | 48 | 1018.7 |
| 20260506191440 | 70 | 280 | 4.3 | 5.2 | 0.00 | 0.00 | 0.00 | 49 | 1018.7 |
| 20260506190937 | 70 | 47 | 0.9 | 1.7 | 0.00 | 0.00 | 0.00 | 50 | 1018.8 |
| 20260506190434 | 69 | 230 | 1.7 | 1.7 | 0.00 | 0.00 | 0.00 | 51 | 1018.8 |
| 20260506185931 | 70 | 255 | 0.9 | 3.5 | 0.00 | 0.00 | 0.00 | 50 | 1018.7 |
| 20260506185428 | 69 | 239 | 3.5 | 4.3 | 0.00 | 0.00 | 0.00 | 52 | 1018.8 |
| 20260506184925 | 70 | 239 | 2.6 | 3.5 | 0.00 | 0.00 | 0.00 | 51 | 1019.0 |
| 20260506184422 | 70 | 278 | 2.6 | 3.5 | 0.00 | 0.00 | 0.00 | 52 | 1018.9 |
| 20260506183919 | 71 | 33 | 0.0 | 0.0 | 0.00 | 0.00 | 0.00 | 49 | 1018.8 |
| 20260506183414 | 69 | 275 | 1.7 | 1.7 | 0.00 | 0.00 | 0.00 | 51 | 1019.1 |
| 20260506182912 | 69 | 22 | 0.9 | 0.9 | 0.00 | 0.00 | 0.00 | 49 | 1019.1 |
| 20260506182409 | 68 | 248 | 0.9 | 0.9 | 0.00 | 0.00 | 0.00 | 53 | 1019.0 |
| 20260506181906 | 68 | 243 | 0.9 | 0.9 | 0.00 | 0.00 | 0.00 | 55 | 1019.1 |
| 20260506181404 | 68 | 276 | 1.7 | 3.5 | 0.00 | 0.00 | 0.00 | 56 | 1019.1 |
| 20260506180901 | 68 | 297 | 2.6 | 3.5 | 0.00 | 0.00 | 0.00 | 57 | 1018.9 |
| 20260506180357 | 69 | 310 | 1.7 | 1.7 | 0.00 | 0.00 | 0.00 | 55 | 1018.9 |
| 20260506175854 | 68 | 342 | 0.0 | 0.9 | 0.00 | 0.00 | 0.00 | 58 | 1019.1 |
| 20260506175350 | 66 | 261 | 0.9 | 1.7 | 0.00 | 0.00 | 0.00 | 59 | 1019.1 |
| 20260506174847 | 66 | 261 | 2.6 | 3.5 | 0.00 | 0.00 | 0.00 | 60 | 1019.2 |
| 20260506174345 | 66 | 228 | 0.9 | 1.7 | 0.00 | 0.00 | 0.00 | 60 | 1019.1 |
| 20260506173842 | 67 | 239 | 0.9 | 0.9 | 0.00 | 0.00 | 0.00 | 60 | 1019.3 |
| 20260506173339 | 66 | 63 | 0.9 | 0.9 | 0.00 | 0.00 | 0.00 | 61 | 1019.2 |
| 20260506172836 | 67 | 279 | 1.7 | 1.7 | 0.00 | 0.00 | 0.00 | 61 | 1019.0 |
| 20260506172333 | 66 | 2 | 0.0 | 0.9 | 0.00 | 0.00 | 0.00 | 61 | 1019.2 |
| 20260506171830 | 65 | 244 | 1.7 | 1.7 | 0.00 | 0.00 | 0.00 | 64 | 1019.2 |
| 20260506171327 | 64 | 274 | 1.7 | 1.7 | 0.00 | 0.00 | 0.00 | 67 | 1019.2 |
| 20260506170825 | 64 | 257 | 2.6 | 3.5 | 0.00 | 0.00 | 0.00 | 67 | 1019.2 |
| 20260506170320 | 63 | 321 | 1.7 | 1.7 | 0.00 | 0.00 | 0.00 | 67 | 1019.3 |
| 20260506165820 | 63 | 271 | 1.7 | 3.5 | 0.00 | 0.00 | 0.00 | 68 | 1019.3 |
| 20260506165317 | 63 | 26 | 0.0 | 0.9 | 0.00 | 0.00 | 0.00 | 68 | 1019.2 |
| 20260506164813 | 63 | 343 | 0.0 | 0.0 | 0.00 | 0.00 | 0.00 | 68 | 1019.2 |
| 20260506164310 | 63 | 266 | 0.9 | 0.9 | 0.00 | 0.00 | 0.00 | 68 | 1019.4 |
| 20260506163807 | 62 | 279 | 0.9 | 1.7 | 0.00 | 0.00 | 0.00 | 70 | 1019.4 |
| 20260506163302 | 62 | 0 | 0.0 | 0.0 | 0.00 | 0.00 | 0.00 | 71 | 1019.4 |
| 20260506162758 | 61 | 244 | 0.9 | 0.9 | 0.00 | 0.00 | 0.00 | 72 | 1019.3 |
| 20260506162256 | 62 | 258 | 0.9 | 0.9 | 0.00 | 0.00 | 0.00 | 71 | 1019.4 |
| 20260506161753 | 60 | 284 | 1.7 | 1.7 | 0.00 | 0.00 | 0.00 | 73 | 1019.5 |
| 20260506161250 | 61 | 342 | 0.9 | 0.9 | 0.00 | 0.00 | 0.00 | 73 | 1019.5 |
| 20260506160748 | 60 | 43 | 0.0 | 0.9 | 0.00 | 0.00 | 0.00 | 75 | 1019.5 |
| 20260506160244 | 59 | 234 | 0.9 | 0.9 | 0.00 | 0.00 | 0.00 | 75 | 1019.6 |
| 20260506155743 | 59 | 291 | 1.7 | 1.7 | 0.00 | 0.00 | 0.00 | 76 | 1019.6 |
| 20260506155239 | 59 | 134 | 0.9 | 0.9 | 0.00 | 0.00 | 0.00 | 76 | 1019.4 |
| 20260506153347 | 57 | 259 | 2.6 | 3.5 | 0.00 | 0.00 | 0.00 | 79 | 1019.7 |
| 20260506152843 | 57 | 280 | 1.7 | 1.7 | 0.00 | 0.00 | 0.00 | 79 | 1019.6 |
| 20260506152341 | 57 | 255 | 1.7 | 1.7 | 0.00 | 0.00 | 0.00 | 79 | 1019.4 |
| 20260506151839 | 57 | 269 | 2.6 | 4.3 | 0.00 | 0.00 | 0.00 | 79 | 1019.6 |
| 20260506151335 | 56 | 358 | 0.0 | 0.0 | 0.00 | 0.00 | 0.00 | 81 | 1019.5 |
| 20260506150833 | 56 | 35 | 0.0 | 0.0 | 0.00 | 0.00 | 0.00 | 81 | 1019.4 |
| 20260506150329 | 55 | 290 | 0.9 | 0.9 | 0.00 | 0.00 | 0.00 | 81 | 1019.5 |
| 20260506145826 | 55 | 269 | 0.9 | 0.9 | 0.00 | 0.00 | 0.00 | 82 | 1019.7 |
| 20260506145322 | 54 | 267 | 2.6 | 3.5 | 0.00 | 0.00 | 0.00 | 83 | 1019.5 |
| 20260506144820 | 54 | 256 | 1.7 | 1.7 | 0.00 | 0.00 | 0.00 | 83 | 1019.5 |
| 20260506144317 | 54 | 350 | 0.0 | 0.0 | 0.00 | 0.00 | 0.00 | 84 | 1019.6 |
| 20260506143815 | 54 | 273 | 1.7 | 1.7 | 0.00 | 0.00 | 0.00 | 85 | 1019.4 |
| 20260506143312 | 53 | 278 | 0.0 | 0.0 | 0.00 | 0.00 | 0.00 | 86 | 1019.4 |
| 20260506142810 | 53 | 236 | 0.9 | 1.7 | 0.00 | 0.00 | 0.00 | 86 | 1019.4 |
| 20260506142308 | 53 | 273 | 0.0 | 0.9 | 0.00 | 0.00 | 0.00 | 86 | 1019.2 |
| 20260506141806 | 53 | 328 | 0.0 | 0.0 | 0.00 | 0.00 | 0.00 | 87 | 1019.2 |
| 20260506141303 | 52 | 18 | 0.0 | 0.0 | 0.00 | 0.00 | 0.00 | 88 | 1019.2 |
| 20260506140801 | 52 | 17 | 0.0 | 0.0 | 0.00 | 0.00 | 0.00 | 88 | 1019.3 |
| 20260506140258 | 52 | 20 | 0.0 | 0.0 | 0.00 | 0.00 | 0.00 | 88 | 1019.1 |
| 20260506135755 | 52 | 356 | 0.0 | 0.0 | 0.00 | 0.00 | 0.00 | 88 | 1019.0 |
| 20260506135251 | 51 | 292 | 0.0 | 0.0 | 0.00 | 0.00 | 0.00 | 88 | 1018.9 |
| 20260506134748 | 51 | 286 | 0.9 | 0.9 | 0.00 | 0.00 | 0.00 | 88 | 1019.1 |
| 20260506134244 | 51 | 8 | 0.0 | 0.0 | 0.00 | 0.00 | 0.00 | 88 | 1018.9 |
| 20260506133741 | 51 | 2 | 0.0 | 0.0 | 0.00 | 0.00 | 0.00 | 88 | 1018.9 |
| 20260506133238 | 51 | 313 | 0.0 | 0.0 | 0.00 | 0.00 | 0.00 | 88 | 1018.6 |
| 20260506132735 | 51 | 274 | 0.0 | 0.0 | 0.00 | 0.00 | 0.00 | 88 | 1018.9 |
| 20260506132232 | 50 | 284 | 0.0 | 0.0 | 0.00 | 0.00 | 0.00 | 88 | 1018.7 |
| 20260506131730 | 51 | 284 | 0.0 | 0.0 | 0.00 | 0.00 | 0.00 | 88 | 1018.8 |
| 20260506131226 | 51 | 284 | 0.0 | 0.0 | 0.00 | 0.00 | 0.00 | 88 | 1018.5 |
| 20260506130723 | 51 | 284 | 0.0 | 0.0 | 0.00 | 0.00 | 0.00 | 88 | 1018.5 |
| 20260506130220 | 51 | 281 | 0.0 | 0.0 | 0.00 | 0.00 | 0.00 | 88 | 1018.5 |
| 20260506125718 | 51 | 275 | 0.9 | 0.9 | 0.00 | 0.00 | 0.00 | 88 | 1018.3 |
| 20260506125215 | 51 | 293 | 0.0 | 0.0 | 0.00 | 0.00 | 0.00 | 88 | 1018.2 |
| 20260506124713 | 51 | 281 | 0.9 | 0.9 | 0.00 | 0.00 | 0.00 | 88 | 1018.3 |
| 20260506124211 | 51 | 295 | 0.9 | 0.9 | 0.00 | 0.00 | 0.00 | 88 | 1018.3 |
| 20260506123708 | 51 | 26 | 0.0 | 0.0 | 0.00 | 0.00 | 0.00 | 88 | 1018.3 |
| 20260506123207 | 51 | 26 | 0.0 | 0.0 | 0.00 | 0.00 | 0.00 | 88 | 1018.2 |
| 20260506122703 | 51 | 26 | 0.0 | 0.0 | 0.00 | 0.00 | 0.00 | 88 | 1018.2 |
| 20260506122201 | 51 | 26 | 0.0 | 0.0 | 0.00 | 0.00 | 0.00 | 88 | 1018.2 |
| 20260506121658 | 51 | 26 | 0.0 | 0.0 | 0.00 | 0.00 | 0.00 | 88 | 1018.2 |
| 20260506121154 | 51 | 26 | 0.0 | 0.0 | 0.00 | 0.00 | 0.00 | 88 | 1018.1 |
| 20260506120653 | 50 | 26 | 0.0 | 0.0 | 0.00 | 0.00 | 0.00 | 88 | 1018.0 |
| 20260506120150 | 51 | 26 | 0.0 | 0.0 | 0.00 | 0.00 | 0.00 | 88 | 1018.1 |
| 20260506115648 | 51 | 26 | 0.0 | 0.0 | 0.00 | 0.00 | 0.00 | 87 | 1018.2 |
| 20260506115146 | 51 | 26 | 0.0 | 0.0 | 0.00 | 0.00 | 0.00 | 87 | 1018.1 |
| 20260506114643 | 51 | 26 | 0.0 | 0.0 | 0.00 | 0.00 | 0.00 | 87 | 1018.1 |
| 20260506114141 | 51 | 26 | 0.0 | 0.0 | 0.00 | 0.00 | 0.00 | 87 | 1018.1 |
| 20260506113639 | 51 | 25 | 0.0 | 0.0 | 0.00 | 0.00 | 0.00 | 87 | 1018.0 |
| 20260506113136 | 51 | 25 | 0.0 | 0.0 | 0.00 | 0.00 | 0.00 | 87 | 1018.0 |